Location: Buisson
(44.2787°N, 4.9969°E)
Time: 01:23:26
(UTC+00:00)

Cosmos 2150 Rocket - Pass Details

Date: 18 April 2021
Orbit: 749 x 807 km, 74.0° (Epoch: 07 May)

Event Time Altitude Azimuth Distance (km) Brightness Sun altitude
Exits shadow 04:00:04 - 200° (SSW) 3,225 6.8 -9.4°
Reaches altitude 10° 04:02:15 10° 200° (SSW) 2,382 6.1 -9.0°
Maximum altitude 04:07:42 87° 287° (WNW) 812 4.1 -8.2°
Drops below altitude 10° 04:13:09 10° 20° (NNE) 2,383 7.2 -7.3°
Sets 04:15:33 0° 21° (NNE) 3,311 8.0 -6.9°
